Location: Mahannah Oil Field
(37.4664°N, 96.6003°W)
Time: 21:20:53
(UTC+00:00)

Altair - Visible Passes

Search period start: 21 January 2021 00:00
Search period end: 31 January 2021 00:00
Orbit: 1501 x 1682 km, 47.2° (Epoch: 20 January)

Date Brightness Start Highest point End Pass type
(mag) Time Alt. Az. Time Alt. Az. Time Alt. Az.
21 Jan 8.9 10:07:25 19° S 10:12:57 31° SE 10:21:18 10° ENE visible
21 Jan 7.7 12:06:52 10° SW 12:16:57 89° SE 12:27:11 10° ENE visible
22 Jan 9.0 09:44:58 24° SSE 09:47:52 28° SE 09:55:51 10° ENE visible
22 Jan 7.6 11:43:05 16° SW 11:51:43 84° SE 12:01:57 10° ENE visible
23 Jan 9.0 09:22:13 25° SE 09:22:46 25° SE 09:30:21 10° ENE visible
23 Jan 7.6 11:20:18 27° SW 11:26:31 79° SE 11:36:42 10° ENE visible
24 Jan 9.2 08:59:14 21° ESE 08:59:14 21° ESE 09:04:47 10° E visible
24 Jan 7.7 10:57:18 42° SW 11:01:19 74° SE 11:11:27 10° ENE visible
24 Jan 7.9 12:56:49 10° W 13:06:43 56° NNW 13:16:43 10° ENE visible
25 Jan 9.5 08:36:04 16° E 08:36:04 16° E 08:39:09 10° E visible
25 Jan 7.7 10:34:08 58° SSW 10:36:08 70° SE 10:46:13 10° ENE visible
25 Jan 7.8 12:32:12 13° W 12:41:24 58° NNW 12:51:26 10° ENE visible
26 Jan 9.7 08:12:46 11° E 08:12:46 11° E 08:13:25 10° E visible
26 Jan 7.7 10:10:49 65° SE 10:10:57 65° SE 10:20:57 10° ENE visible
26 Jan 7.8 12:08:52 21° W 12:16:06 60° NNW 12:26:11 10° ENE visible
27 Jan 8.0 09:47:24 55° ESE 09:47:24 55° ESE 09:55:40 10° ENE visible
27 Jan 7.7 11:45:26 31° W 11:50:48 63° NNW 12:00:55 10° ENE visible
28 Jan 8.4 09:23:52 41° E 09:23:52 41° E 09:30:23 10° ENE visible
28 Jan 7.6 11:21:54 43° W 11:25:30 65° NNW 11:35:39 10° ENE visible
29 Jan 8.9 09:00:16 31° ENE 09:00:16 31° ENE 09:05:05 10° ENE visible
29 Jan 7.5 10:58:18 58° WNW 11:00:13 68° NNW 11:10:24 10° ENE visible
29 Jan 8.1 12:56:50 10° WNW 13:06:32 49° N 13:16:19 10° ENE visible
30 Jan 9.2 08:36:36 22° ENE 08:36:36 22° ENE 08:39:47 10° ENE visible
30 Jan 7.5 10:34:37 71° NW 10:34:57 72° NNW 10:45:08 10° ENE visible
30 Jan 8.1 12:32:38 14° WNW 12:41:11 49° N 12:50:58 10° ENE visible
